This is the latest recevied weather packets stored in our database for station/object N6WDO. If no packets are shown the sender has not sent any weather packets the latest 10 day(s).
| Time | Temp. | Humidity | Pressure | Rain* | Wind** | Luminosity | Snow |
|---|---|---|---|---|---|---|---|
| 1777662035 | 25° C | 40% | 1016.5 hPa | 0 mm | - | 718 W/m² | - |
| 1777661731 | 24.44° C | 45% | 1016.7 hPa | 0 mm | - | 712 W/m² | - |
| 1777661427 | 24.44° C | 41% | 1016.6 hPa | 0 mm | - | 708 W/m² | - |
| 1777661123 | 25° C | 41% | 1016.8 hPa | 0 mm | - | 703 W/m² | - |
| 1777660818 | 25° C | 41% | 1016.7 hPa | 0 mm | - | 696 W/m² | - |
| 1777660515 | 24.44° C | 43% | 1016.9 hPa | 0 mm | - | 694 W/m² | - |
| 1777660211 | 25° C | 42% | 1017 hPa | 0 mm | - | 686 W/m² | - |
| 1777659908 | 24.44° C | 43% | 1016.9 hPa | 0 mm | - | 681 W/m² | - |
| 1777659605 | 24.44° C | 44% | 1017 hPa | 0 mm | - | 672 W/m² | - |
| 1777659302 | 25° C | 43% | 1016.9 hPa | 0 mm | - | 665 W/m² | - |
| 1777658999 | 24.44° C | 44% | 1016.9 hPa | 0 mm | - | 656 W/m² | - |
| 1777658697 | 25.56° C | 44% | 1016.9 hPa | 0 mm | - | 649 W/m² | - |
| 1777658392 | 25° C | 45% | 1017 hPa | 0 mm | - | 635 W/m² | - |
| 1777658090 | 24.44° C | 48% | 1017 hPa | 0 mm | - | 631 W/m² | - |
| 1777657786 | 25° C | 45% | 1017.1 hPa | 0 mm | - | 624 W/m² | - |
| 1777657484 | 25° C | 47% | 1016.8 hPa | 0 mm | - | 613 W/m² | - |
| 1777657181 | 25° C | 46% | 1016.9 hPa | 0 mm | - | 604 W/m² | - |
| 1777656879 | 23.89° C | 45% | 1017 hPa | 0 mm | - | 594 W/m² | - |
| 1777656574 | 23.89° C | 46% | 1017 hPa | 0 mm | - | 584 W/m² | - |
| 1777656270 | 23.33° C | 45% | 1016.8 hPa | 0 mm | - | 572 W/m² | - |
| 1777655966 | 23.33° C | 47% | 1017 hPa | 0 mm | - | 562 W/m² | - |
| 1777655662 | 23.33° C | 46% | 1016.9 hPa | 0 mm | - | 550 W/m² | - |
| 1777655359 | 23.33° C | 45% | 1017 hPa | 0 mm | - | 539 W/m² | - |
| 1777655056 | 23.33° C | 46% | 1017 hPa | 0 mm | - | 527 W/m² | - |
| 1777654754 | 23.33° C | 46% | 1016.8 hPa | 0 mm | - | 515 W/m² | - |
* Rain latest hour (hover to see other rain measurements)
** Current wind speed in m/s (hover to see current wind gust speed)